H1 CPF 2 NER 2021 3 24 9 083 01 glonass131 H2 1301901 9131 39155 2021 3 24 0 0 0 2021 3 27 23 45 0 900 1 1 0 0 0 1 H9 10 0 59297 0.00000 0 538456.443 -14281825.631 -21099107.280 10 0 59297 900.00000 0 2251855.000 -16131472.950 -19607948.857 10 0 59297 1800.00000 0 3690420.805 -17943327.703 -17735179.897 10 0 59297 2700.00000 0 4841551.261 -19653187.140 -15517507.007 10 0 59297 3600.00000 0 5705431.407 -21197639.332 -12998290.520 10 0 59297 4500.00000 0 6294742.247 -22516677.241 -10226681.235 10 0 59297 5400.00000 0 6633843.908 -23556182.864 -7256649.374 10 0 59297 6300.00000 0 6757471.300 -24270178.041 -4145925.693 10 0 59297 7200.00000 0 6709000.215 -24622748.815 -954876.164 10 0 59297 8100.00000 0 6538359.316 -24589564.428 2254667.551 10 0 59297 9000.00000 0 6299677.642 -24158929.267 5420599.242 10 0 59297 9900.00000 0 6048767.502 -23332325.693 8481728.195 10 0 59297 10800.00000 0 5840548.835 -22124426.889 11378946.092 10 0 59297 11700.00000 0 5726522.799 -20562580.570 14056349.553 10 0 59297 12600.00000 0 5752399.684 -18685785.978 16462298.226 10 0 59297 13500.00000 0 5955979.423 -16543206.953 18550389.963 10 0 59297 14400.00000 0 6365372.293 -14192282.312 20280336.329 10 0 59297 15300.00000 0 6997633.259 -11696510.815 21618723.448 10 0 59297 16200.00000 0 7857866.613 -9123000.684 22539645.316 10 0 59297 17100.00000 0 8938838.482 -6539882.868 23025198.741 10 0 59297 18000.00000 0 10221114.348 -4013692.693 23065831.111 10 0 59297 18900.00000 0 11673717.593 -1606825.764 22660534.509 10 0 59297 19800.00000 0 13255284.056 624828.807 21816881.859 10 0 59297 20700.00000 0 14915667.315 2633981.422 20550903.189 10 0 59297 21600.00000 0 16597930.872 4383675.612 18886802.582 10 0 59297 22500.00000 0 18240647.076 5848590.556 16856518.959 10 0 59297 23400.00000 0 19780409.281 7015857.908 14499136.660 10 0 59297 24300.00000 0 21154454.029 7885357.934 11860154.625 10 0 59297 25200.00000 0 22303284.364 8469481.229 8990625.899 10 0 59297 26100.00000 0 23173184.136 8792364.444 5946182.234 10 0 59297 27000.00000 0 23718516.579 8888630.774 2785961.345 10 0 59297 27900.00000 0 23903708.496 8801687.233 -428543.006 10 0 59297 28800.00000 0 23704833.839 8581650.119 -3634685.477 10 0 59297 29700.00000 0 23110726.940 8282986.720 -6769903.852 10 0 59297 30600.00000 0 22123575.376 7961974.144 -9772958.394 10 0 59297 31500.00000 0 20758964.770 7674084.771 -12585149.522 10 0 59297 32400.00000 0 19045371.421 7471411.499 -15151487.835 10 0 59297 33300.00000 0 17023122.707 7400244.684 -17421791.247 10 0 59297 34200.00000 0 14742868.479 7498906.218 -19351685.562 10 0 59297 35100.00000 0 12263627.943 7795935.082 -20903487.153 10 0 59297 36000.00000 0 9650494.916 8308703.331 -22046949.136 10 0 59297 36900.00000 0 6972099.134 9042522.514 -22759855.644 10 0 59297 37800.00000 0 4297931.431 9990279.101 -23028452.441 10 0 59297 38700.00000 0 1695646.104 11132614.354 -22847705.824 10 0 59297 39600.00000 0 -771545.691 12438640.394 -22221385.615 10 0 59297 40500.00000 0 -3047282.264 13867161.189 -21161971.894 10 0 59297 41400.00000 0 -5084157.394 15368345.534 -19690388.814 10 0 59297 42300.00000 0 -6845439.208 16885779.992 -17835572.421 10 0 59297 43200.00000 0 -8306332.285 18358813.885 -15633882.633 10 0 59297 44100.00000 0 -9454733.054 19725096.526 -13128372.572 10 0 59297 45000.00000 0 -10291450.141 20923199.099 -10367931.062 10 0 59297 45900.00000 0 -10829884.160 21895210.785 -7406316.399 10 0 59297 46800.00000 0 -11095184.017 22589200.280 -4301101.237 10 0 59297 47700.00000 0 -11122918.533 22961440.157 -1112549.971 10 0 59297 48600.00000 0 -10957322.148 22978301.995 2097549.215 10 0 59297 49500.00000 0 -10649190.671 22617744.387 5267075.019 10 0 59297 50400.00000 0 -10253516.988 21870333.199 8334763.716 10 0 59297 51300.00000 0 -9826966.745 20739753.090 11241377.737 10 0 59297 52200.00000 0 -9425299.926 19242790.247 13930830.914 10 0 59297 53100.00000 0 -9100845.803 17408788.041 16351250.181 10 0 59297 54000.00000 0 -8900135.966 15278598.566 18455955.213 10 0 59297 54900.00000 0 -8861793.214 12903073.239 20204339.161 10 0 59297 55800.00000 0 -9014763.359 10341154.079 21562635.374 10 0 59297 56700.00000 0 -9376962.867 7657643.007 22504557.183 10 0 59297 57600.00000 0 -9954398.434 4920739.233 23011799.751 10 0 59297 58500.00000 0 -10740795.515 2199444.080 23074395.155 10 0 59297 59400.00000 0 -11717752.358 -439062.101 22690914.076 10 0 59297 60300.00000 0 -12855414.952 -2931965.005 21868509.693 10 0 59297 61200.00000 0 -14113647.088 -5223180.102 20622801.753 10 0 59297 62100.00000 0 -15443649.503 -7265438.611 18977601.276 10 0 59297 63000.00000 0 -16789963.368 -9022010.017 16964478.892 10 0 59297 63900.00000 0 -18092776.944 -10467989.418 14622182.672 10 0 59297 64800.00000 0 -19290440.981 -11591095.492 11995914.074 10 0 59297 65700.00000 0 -20322088.739 -12391944.533 9136473.595 10 0 59297 66600.00000 0 -21130250.947 -12883787.519 6099290.743 10 0 59297 67500.00000 0 -21663355.126 -13091719.717 2943355.736 10 0 59297 68400.00000 0 -21878002.408 -13051394.748 -269927.028 10 0 59297 69300.00000 0 -21740923.444 -12807296.425 -3477941.236 10 0 59297 70200.00000 0 -21230527.943 -12410641.204 -6618092.394 10 0 59297 71100.00000 0 -20337979.202 -11917000.510 -9629047.534 10 0 59297 72000.00000 0 -19067745.194 -11383744.938 -12451954.564 10 0 59297 72900.00000 0 -17437600.268 -10867420.550 -15031615.216 10 0 59297 73800.00000 0 -15478075.273 -10421170.896 -17317586.369 10 0 59297 74700.00000 0 -13231378.077 -10092316.547 -19265185.900 10 0 59297 75600.00000 0 -10749829.426 -9920197.217 -20836381.661 10 0 59297 76500.00000 0 -8093880.167 -9934369.969 -22000544.795 10 0 59297 77400.00000 0 -5329794.001 -10153241.327 -22735051.838 10 0 59297 78300.00000 0 -2527094.086 -10583192.026 -23025723.679 10 0 59297 79200.00000 0 244118.330 -11218231.502 -22867093.102 10 0 59297 80100.00000 0 2915859.964 -12040196.127 -22262496.552 10 0 59297 81000.00000 0 5424862.963 -13019481.632 -21223989.563 10 0 59297 81900.00000 0 7714965.344 -14116277.213 -19772089.002 10 0 59297 82800.00000 0 9739195.290 -15282247.418 -17935348.862 10 0 59297 83700.00000 0 11461463.880 -16462589.091 -15749779.640 10 0 59297 84600.00000 0 12857797.901 -17598375.045 -13258124.303 10 0 59297 85500.00000 0 13917064.124 -18629084.428 -10509006.603 10 0 59298 0.00000 0 14641158.191 -19495212.489 -7555969.746 10 0 59298 900.00000 0 15044653.742 -20140849.421 -4456424.860 10 0 59298 1800.00000 0 15153930.274 -20516120.875 -1270531.514 10 0 59298 2700.00000 0 15005818.989 -20579386.984 1939968.826 10 0 59298 3600.00000 0 14645826.778 -20299110.414 5112942.870 10 0 59298 4500.00000 0 14126014.322 -19655315.328 8187056.749 10 0 59298 5400.00000 0 13502618.749 -18640578.227 11102946.226 10 0 59298 6300.00000 0 12833520.855 -17260510.360 13804344.567 10 0 59298 7200.00000 0 12175662.668 -15533712.603 16239147.828 10 0 59298 8100.00000 0 11582522.572 -13491205.081 18360398.934 10 0 59298 9000.00000 0 11101752.267 -11175355.002 20127173.622 10 0 59298 9900.00000 0 10773072.922 -8638346.351 21505353.057 10 0 59298 10800.00000 0 10626517.007 -5940253.220 22468270.069 10 0 59298 11700.00000 0 10681088.301 -3146794.319 22997217.967 10 0 59298 12600.00000 0 10943895.551 -326858.996 23081812.950 10 0 59298 13500.00000 0 11409796.293 2450095.789 22720203.405 10 0 59298 14400.00000 0 12061566.801 5116672.697 21919121.592 10 0 59298 15300.00000 0 12870592.830 7610079.150 20693775.565 10 0 59298 16200.00000 0 13798054.650 9874486.896 19067581.652 10 0 59298 17100.00000 0 14796559.448 11863109.425 17071740.399 10 0 59298 18000.00000 0 15812155.352 13539911.241 14744661.644 10 0 59298 18900.00000 0 16786644.967 14880877.526 12131247.252 10 0 59298 19800.00000 0 17660102.966 15874790.214 9282042.908 10 0 59298 20700.00000 0 18373492.726 16523476.442 6252273.488 10 0 59298 21600.00000 0 18871271.679 16841517.319 3100779.202 10 0 59298 22500.00000 0 19103874.428 16855427.618 -111127.499 10 0 59298 23400.00000 0 19029966.744 16602339.627 -3320861.919 10 0 59298 24300.00000 0 18618372.526 16128246.028 -6465799.836 10 0 59298 25200.00000 0 17849589.095 15485876.048 -9484517.469 10 0 59298 26100.00000 0 16716823.523 14732295.518 -12318012.420 10 0 59298 27000.00000 0 15226503.139 13926333.920 -14910879.532 10 0 59298 27900.00000 0 13398236.059 13125949.411 -17212416.343 10 0 59298 28800.00000 0 11264221.537 12385645.778 -19177634.253 10 0 59298 29700.00000 0 8868133.891 11754053.062 -20768153.799 10 0 59298 30600.00000 0 6263526.590 11271776.388 -21952965.154 10 0 59298 31500.00000 0 3511824.020 10969605.687 -22709038.072 10 0 59298 32400.00000 0 679985.980 10867162.946 -23021769.176 10 0 59298 33300.00000 0 -2162056.101 10972044.426 -22885258.126 10 0 59298 34200.00000 0 -4944082.806 11279493.484 -22302408.110 10 0 59298 35100.00000 0 -7598277.197 11772616.615 -21284849.911 10 0 59298 36000.00000 0 -10061809.411 12423131.823 -19852692.545 10 0 59298 36900.00000 0 -12279207.668 13192615.635 -18034107.023 10 0 59298 37800.00000 0 -14204417.785 14034193.943 -15864753.142 10 0 59298 38700.00000 0 -15802467.008 14894603.251 -13387062.138 10 0 59298 39600.00000 0 -17050665.066 15716533.581 -10649390.845 10 0 59298 40500.00000 0 -17939295.284 16441152.923 -7705065.223 10 0 59298 41400.00000 0 -18471770.225 17010706.021 -4611332.945 10 0 59298 42300.00000 0 -18664248.751 17371077.824 -1428246.340 10 0 59298 43200.00000 0 -18544733.868 17474214.047 1782502.236 10 0 59298 44100.00000 0 -18151692.080 17280297.895 4958769.981 10 0 59298 45000.00000 0 -17532254.397 16759592.666 8039155.431 10 0 59298 45900.00000 0 -16740075.986 15893874.303 10964170.290 10 0 59298 46800.00000 0 -15832944.911 14677395.117 13677369.899 10 0 59298 47700.00000 0 -14870240.041 13117339.474 16126422.069 10 0 59298 48600.00000 0 -13910343.790 11233752.931 18264095.538 10 0 59298 49500.00000 0 -13008116.561 9058947.713 20049151.071 10 0 59298 50400.00000 0 -12212536.837 6636408.532 21447119.899 10 0 59298 51300.00000 0 -11564603.790 4019242.652 22430956.366 10 0 59298 52200.00000 0 -11095588.437 1268236.275 22981553.633 10 0 59298 53100.00000 0 -10825705.331 -1550404.830 23088113.368 10 0 59298 54000.00000 0 -10763259.762 -4367539.998 22748362.617 10 0 59298 54900.00000 0 -10904306.427 -7113703.832 21968613.232 10 0 59298 55800.00000 0 -11232834.885 -9721736.586 20763661.610 10 0 59298 56700.00000 0 -11721475.810 -12129328.157 19156528.933 10 0 59298 57600.00000 0 -12332700.685 -14281371.864 17178044.694 10 0 59298 58500.00000 0 -13020467.101 -16132031.010 14866279.041 10 0 59298 59400.00000 0 -13732242.942 -17646432.257 12265832.322 10 0 59298 60300.00000 0 -14411326.298 -18801914.398 9426993.085 10 0 59298 61200.00000 0 -14999364.685 -19588778.871 6404778.865 10 0 59298 62100.00000 0 -15438967.731 -20010508.805 3257876.877 10 0 59298 63000.00000 0 -15676302.420 -20083445.526 47504.392 10 0 59298 63900.00000 0 -15663559.645 -19835934.411 -3163788.928 10 0 59298 64800.00000 0 -15361185.383 -19306974.911 -6313352.673 10 0 59298 65700.00000 0 -14739779.081 -18544431.165 -9339675.860 10 0 59298 66600.00000 0 -13781575.654 -17602879.025 -12183609.405 10 0 59298 67500.00000 0 -12481445.167 -16541181.523 -14789544.791 10 0 59298 68400.00000 0 -10847364.933 -15419896.951 -17106523.563 10 0 59298 69300.00000 0 -8900341.775 -14298631.270 -19089253.670 10 0 59298 70200.00000 0 -6673786.037 -13233449.079 -20699010.939 10 0 59298 71100.00000 0 -4212362.812 -12274454.720 -21904406.641 10 0 59298 72000.00000 0 -1570368.608 -11463647.495 -22682005.215 10 0 59298 72900.00000 0 1190297.914 -10833142.743 -23016779.843 10 0 59298 73800.00000 0 4002485.196 -10403834.222 -22902397.269 10 0 59298 74700.00000 0 6796358.521 -10184553.868 -22341327.038 10 0 59298 75600.00000 0 9502081.796 -10171763.161 -21344774.283 10 0 59298 76500.00000 0 12052498.653 -10349787.283 -19932438.799 10 0 59298 77400.00000 0 14385700.656 -10691579.864 -18132106.840 10 0 59298 78300.00000 0 16447375.883 -11159983.539 -15979085.327 10 0 59298 79200.00000 0 18192841.038 -11709430.541 -13515491.220 10 0 59298 80100.00000 0 19588674.052 -12288009.252 -10789411.541 10 0 59298 81000.00000 0 20613881.487 -12839807.609 -7853951.833 10 0 59298 81900.00000 0 21260554.943 -13307433.103 -4766192.697 10 0 59298 82800.00000 0 21533992.147 -13634602.344 -1586075.595 10 0 59298 83700.00000 0 21452280.931 -13768690.919 1624759.985 10 0 59298 84600.00000 0 21045366.498 -13663136.574 4804165.430 10 0 59298 85500.00000 0 20353643.522 -13279595.526 7890675.207 10 0 59299 0.00000 0 19426133.944 -12589762.513 10824680.121 10 0 59299 900.00000 0 18318327.806 -11576779.015 13549560.540 10 0 59299 1800.00000 0 17089777.704 -10236173.044 16012758.350 10 0 59299 2700.00000 0 15801547.189 -8576289.828 18166770.000 10 0 59299 3600.00000 0 14513618.132 -6618197.680 19970042.693 10 0 59299 4500.00000 0 13282364.087 -4395071.114 21387758.669 10 0 59299 5400.00000 0 12158192.958 -1951076.168 22392494.277 10 0 59299 6300.00000 0 11183455.500 660197.977 22964742.600 10 0 59299 7200.00000 0 10390705.289 3377698.499 23093290.451 10 0 59299 8100.00000 0 9801381.632 6135181.432 22775442.844 10 0 59299 9000.00000 0 9424969.951 8863706.229 22017090.200 10 0 59299 9900.00000 0 9258675.066 11494252.044 20832615.925 10 0 59299 10800.00000 0 9287622.062 13960350.066 19244644.455 10 0 59299 11700.00000 0 9485578.026 16200624.766 17283632.390 10 0 59299 12600.00000 0 9816166.475 18161139.659 14987308.142 10 0 59299 13500.00000 0 10234525.663 19797450.410 12399968.292 10 0 59299 14400.00000 0 10689343.039 21076279.126 9571641.820 10 0 59299 15300.00000 0 11125181.658 21976738.583 6557136.338 10 0 59299 16200.00000 0 11485001.169 22491053.327 3414983.349 10 0 59299 17100.00000 0 11712766.747 22624745.320 206302.144 10 0 59299 18000.00000 0 11756034.572 22396274.245 -3006395.475 10 0 59299 18900.00000 0 11568402.437 21836145.940 -6160435.672 10 0 59299 19800.00000 0 11111719.018 20985525.426 -9194222.894 10 0 59299 20700.00000 0 10357955.133 19894412.656 -12048463.793 10 0 59299 21600.00000 0 9290654.413 18619458.457 -14667348.652 10 0 59299 22500.00000 0 7905898.823 17221514.064 -16999664.900 10 0 59299 23400.00000 0 6212745.505 15763019.457 -18999818.634 10 0 59299 24300.00000 0 4233114.331 14305342.898 -20628742.304 10 0 59299 25200.00000 0 2001129.530 12906186.015 -21854669.362 10 0 59299 26100.00000 0 -438057.495 11617165.811 -22653759.775 10 0 59299 27000.00000 0 -3029914.563 10481676.904 -23010563.886 10 0 59299 27900.00000 0 -5712574.686 9533124.693 -22918315.832 10 0 59299 28800.00000 0 -8419194.777 8793603.755 -22379051.516 10 0 59299 29700.00000 0 -11080527.348 8273076.068 -21403550.040 10 0 59299 30600.00000 0 -13627596.755 7969081.895 -20011101.223 10 0 59299 31500.00000 0 -15994367.487 7866993.113 -18229105.405 10 0 59299 32400.00000 0 -18120293.057 7940795.499 -16092515.141 10 0 59299 33300.00000 0 -19952639.643 8154364.039 -13643131.327 10 0 59299 34200.00000 0 -21448488.638 8463174.677 -10928769.173 10 0 59299 35100.00000 0 -22576336.401 8816377.736 -8002311.675 10 0 59299 36000.00000 0 -23317226.799 9159143.553 -4920670.127 10 0 59299 36900.00000 0 -23665371.985 9435179.987 -1743672.841 10 0 59299 37800.00000 0 -23628238.431 9589314.923 1467095.891 10 0 59299 38700.00000 0 -23226097.557 9570034.852 4649484.018 10 0 59299 39600.00000 0 -22491062.295 9331873.156 7741964.361 10 0 59299 40500.00000 0 -21465652.001 8837548.552 10684809.403 10 0 59299 41400.00000 0 -20200947.092 8059764.997 13421226.787 10 0 59299 42300.00000 0 -18754411.138 6982598.725 15898435.033 10 0 59299 43200.00000 0 -17187471.179 5602415.214 18068660.688 10 0 59299 44100.00000 0 -15562956.266 3928278.193 19890039.625 10 0 59299 45000.00000 0 -13942499.544 1981833.450 21327407.112 10 0 59299 45900.00000 0 -12384010.174 -203328.648 22352963.268 10 0 59299 46800.00000 0 -10939318.281 -2582807.141 22946802.558 10 0 59299 47700.00000 0 -9652089.055 -5102976.179 23097298.088 10 0 59299 48600.00000 0 -8556091.249 -7702959.585 22801333.646 10 0 59299 49500.00000 0 -7673891.117 -10316915.649 22064378.680 10 0 59299 50400.00000 0 -7016025.953 -12876540.552 20900403.722 10 0 59299 51300.00000 0 -6580692.112 -15313689.627 19331636.208 10 0 59299 52200.00000 0 -6353961.561 -17563010.070 17388159.228 10 0 59299 53100.00000 0 -6310519.586 -19564477.286 15107358.456 10 0 59299 54000.00000 0 -6414894.536 -21265730.110 12533225.351 10 0 59299 54900.00000 0 -6623129.847 -22624107.340 9715527.613 10 0 59299 55800.00000 0 -6884829.559 -23608299.404 6708860.909 10 0 59299 56700.00000 0 -7145492.099 -24199544.266 3571598.701 10 0 59299 57600.00000 0 -7349033.995 -24392315.246 364759.712 10 0 59299 58500.00000 0 -7440396.165 -24194469.440 -2849184.942 10 0 59299 59400.00000 0 -7368120.907 -23626848.383 -6007541.049 10 0 59299 60300.00000 0 -7086788.080 -22722346.039 -9048631.723 10 0 59299 61200.00000 0 -6559204.361 -21524482.420 -11913022.731 10 0 59299 62100.00000 0 -5758249.602 -20085542.770 -14544706.600 10 0 59299 63000.00000 0 -4668298.791 -18464361.403 -16892220.063 10 0 59299 63900.00000 0 -3286156.567 -16723844.987 -18909670.618 10 0 59299 64800.00000 0 -1621462.244 -14928341.463 -20557650.318 10 0 59299 65700.00000 0 303453.526 -13140967.472 -21804017.387 10 0 59299 66600.00000 0 2454255.402 -11421008.776 -22624529.417 10 0 59299 67500.00000 0 4785804.768 -9821504.630 -23003315.481 10 0 59299 68400.00000 0 7243825.053 -8387118.611 -22933178.119 10 0 59299 69300.00000 0 9766960.274 -7152385.603 -22415720.055 10 0 59299 70200.00000 0 12289139.423 -6140407.876 -21461294.322 10 0 59299 71100.00000 0 14742146.686 -5362053.465 -20088780.221 10 0 59299 72000.00000 0 17058288.982 -4815688.285 -18325191.180 10 0 59299 72900.00000 0 19173048.814 -4487450.321 -16205123.906 10 0 59299 73800.00000 0 21027611.635 -4352051.160 -13770061.277 10 0 59299 74700.00000 0 22571162.642 -4374067.885 -11067544.259 10 0 59299 75600.00000 0 23762858.412 -4509667.819 -8150230.401 10 0 59299 76500.00000 0 24573392.785 -4708690.773 -5074858.390 10 0 59299 77400.00000 0 24986093.879 -4916998.987 -1901139.773 10 0 59299 78300.00000 0 24997509.005 -5078994.322 1309400.171 10 0 59299 79200.00000 0 24617455.710 -5140195.980 4494609.822 10 0 59299 80100.00000 0 23868539.347 -5049770.216 7592904.124 10 0 59299 81000.00000 0 22785159.489 -4762906.189 10544440.740 10 0 59299 81900.00000 0 21412048.253 -4242939.009 13292257.920 10 0 59299 82800.00000 0 19802402.417 -3463132.047 15783353.606 10 0 59299 83700.00000 0 18015687.332 -2408044.791 17969686.821 10 0 59299 84600.00000 0 16115203.417 -1074429.742 19809084.059 10 0 59299 85500.00000 0 14165515.249 528378.921 21266035.127 10 0 59300 0.00000 0 12229848.294 2378601.585 22312364.987 10 0 59300 900.00000 0 10367559.409 4442670.375 22927770.192 10 0 59300 1800.00000 0 8631783.718 6676380.795 23100210.408 10 0 59300 2700.00000 0 7067354.534 9026494.305 22826148.073 10 0 59300 3600.00000 0 5709080.016 11432726.929 22110631.164 10 0 59300 4500.00000 0 4580448.423 13830045.401 20967216.459 10 0 59300 5400.00000 0 3692815.103 16151178.338 19417733.163 10 0 59300 6300.00000 0 3045105.802 18329241.000 17491889.294 10 0 59300 7200.00000 0 2624049.792 20300366.389 15226725.933 10 0 59300 8100.00000 0 2404934.590 22006234.330 12665927.288 10 0 59300 9000.00000 0 2352852.272 23396393.251 9858997.406 10 0 59300 9900.00000 0 2424386.655 24430276.803 6860317.403 10 0 59300 10800.00000 0 2569671.409 25078829.333 3728099.918 10 0 59300 11700.00000 0 2734732.836 25325669.810 523260.172 10 0 59300 12600.00000 0 2864018.045 25167742.741 -2691774.424 10 0 59300 13500.00000 0 2903000.423 24615426.175 -5854292.319 10 0 59300 14400.00000 0 2800750.132 23692089.987 -8902538.241 10 0 59300 15300.00000 0 2512358.089 22433121.440 -11776939.867 10 0 59300 16200.00000 0 2001107.686 20884458.153 -14421294.547 10 0 59300 17100.00000 0 1240298.996 19100690.287 -16783890.614 10 0 59300 18000.00000 0 214645.193 17142812.627 -18818539.003 10 0 59300 18900.00000 0 -1078820.600 15075722.597 -20485493.111 10 0 59300 19800.00000 0 -2630368.482 12965571.252 -21752237.383 10 0 59300 20700.00000 0 -4417742.165 10877080.538 -22594128.205 10 0 59300 21600.00000 0 -6406870.097 8870941.216 -22994874.218 10 0 59300 22500.00000 0 -8553087.306 7001401.864 -22946846.868 10 0 59300 23400.00000 0 -10802815.927 5314150.711 -22451215.801 10 0 59300 24300.00000 0 -13095632.884 3844578.758 -21517907.643 10 0 59300 25200.00000 0 -15366636.820 2616495.825 -20165390.399 10 0 59300 26100.00000 0 -17549013.936 1641351.354 -18420289.359 10 0 59300 27000.00000 0 -19576694.431 917989.875 -16316843.759 10 0 59300 27900.00000 0 -21386987.963 432948.141 -13896216.512 10 0 59300 28800.00000 0 -22923087.866 161277.993 -11205672.143 10 0 59300 29700.00000 0 -24136340.128 67856.859 -8297640.394 10 0 59300 30600.00000 0 -24988183.504 109127.546 -5228684.878 10 0 59300 31500.00000 0 -25451681.364 235191.446 -2058397.848 10 0 59300 32400.00000 0 -25512583.452 392164.954 1151756.988 10 0 59300 33300.00000 0 -25169875.503 524698.584 4339631.026 10 0 59300 34200.00000 0 -24435796.091 578552.232 7443583.940 10 0 59300 35100.00000 0 -23335322.137 503118.371 10403661.166 10 0 59300 36000.00000 0 -21905146.182 253787.790 13162734.122 10 0 59300 36900.00000 0 -20192189.137 -205940.419 15667582.628 10 0 59300 37800.00000 0 -18251710.807 -902691.973 17869900.496 10 0 59300 38700.00000 0 -16145096.324 -1851866.695 19727206.926 10 0 59300 39600.00000 0 -13937409.439 -3056759.839 21203648.083 10 0 59300 40500.00000 0 -11694812.488 -4508192.203 22270675.291 10 0 59300 41400.00000 0 -9481957.954 -6184665.238 22907588.312 10 0 59300 42300.00000 0 -7359457.546 -8053036.180 23101934.221 10 0 59300 43200.00000 0 -5381531.499 -10069687.404 22849754.655 10 0 59300 44100.00000 0 -3593933.668 -12182144.228 22155676.357 10 0 59300 45000.00000 0 -2032237.231 -14331077.002 21032842.320 10 0 59300 45900.00000 0 -720551.488 -16452607.490 19502683.235 10 0 59300 46800.00000 0 329276.859 -18480826.549 17594531.497 10 0 59300 47700.00000 0 1117943.946 -20350420.611 15345082.769 10 0 59300 48600.00000 0 1658437.613 -21999299.069 12797712.893 10 0 59300 49500.00000 0 1975263.953 -23371113.531 10001660.855 10 0 59300 50400.00000 0 2103182.389 -24417563.138 7011091.525 10 0 59300 51300.00000 0 2085501.204 -25100388.092 3884054.737 10 0 59300 52200.00000 0 1972004.534 -25392965.639 681359.963 10 0 59300 53100.00000 0 1816598.205 -25281438.809 -2534611.585 10 0 59300 54000.00000 0 1674774.660 -24765327.627 -5701133.723 10 0 59300 54900.00000 0 1601005.781 -23857594.353 -8756375.729 10 0 59300 55800.00000 0 1646176.295 -22584157.768 -11640630.277 10 0 59300 56700.00000 0 1855169.287 -20982875.404 -14297502.749 10 0 59300 57600.00000 0 2264709.206 -19102035.819 -16675036.324 10 0 59300 58500.00000 0 2901556.784 -16998424.514 -18726748.542 10 0 59300 59400.00000 0 3781135.057 -14735045.723 -20412557.116 10 0 59300 60300.00000 0 4906646.924 -12378597.206 -21699575.395 10 0 59300 61200.00000 0 6268723.104 -9996805.876 -22562760.843 10 0 59300 62100.00000 0 7845616.242 -7655737.724 -22985403.504 10 0 59300 63000.00000 0 9603933.172 -5417196.187 -22959445.068 10 0 59300 63900.00000 0 11499873.969 -3336318.888 -22485622.954 10 0 59300 64800.00000 0 13480924.736 -1459473.396 -21573437.757 10 0 59300 65700.00000 0 15487931.782 177460.677 -20240946.083 10 0 59300 66600.00000 0 17457468.729 1550352.897 -18514384.525 10 0 59300 67500.00000 0 19324396.087 2647576.256 -16427633.826 10 0 59300 68400.00000 0 21024505.110 3470225.904 -14021535.427 10 0 59300 69300.00000 0 22497134.696 4031796.691 -11343075.426 10 0 59300 70200.00000 0 23687651.849 4357336.722 -8444453.295 10 0 59300 71100.00000 0 24549692.551 4482116.077 -5382054.693 10 0 59300 72000.00000 0 25047070.471 4449869.747 -2215349.341 10 0 59300 72900.00000 0 25155275.344 4310691.367 994264.106 10 0 59300 73800.00000 0 24862500.324 4118668.192 4184643.668 10 0 59300 74700.00000 0 24170157.470 3929357.903 7294097.338 10 0 59300 75600.00000 0 23092861.790 3797213.678 10262561.789 10 0 59300 76500.00000 0 21657886.135 3773065.412 13032744.857 10 0 59300 77400.00000 0 19904110.823 3901761.974 15551211.196 10 0 59300 78300.00000 0 17880512.176 4220072.283 17769392.045 10 0 59300 79200.00000 0 15644252.563 4754931.987 19644501.603 10 0 59300 80100.00000 0 13258450.307 5522108.164 21140344.337 10 0 59300 81000.00000 0 10789720.372 6525337.395 22227999.519 10 0 59300 81900.00000 0 8305585.577 7755973.408 22886371.385 10 0 59300 82800.00000 0 5871863.267 9193159.901 23102595.289 10 0 59300 83700.00000 0 3550133.177 10804523.074 22872292.535 10 0 59300 84600.00000 0 1395389.117 12547357.466 22199668.709 10 0 59300 85500.00000 0 -546029.920 14370258.549 21097452.671 99